Location: Borotín
(49.5055°N, 14.6142°E)
Time: 07:09:09
(UTC+00:00)

Cosmos 1709 Rocket - Pass Details

Date: 27 May 2022
Orbit: 947 x 1002 km, 82.9° (Epoch: 28 June)

Event Time Altitude Azimuth Distance (km) Brightness Sun altitude
Rises 00:07:30 0° 348° (NNW) 3,649 8.1 -17.6°
Reaches altitude 10° 00:10:02 10° 346° (NNW) 2,694 7.2 -17.5°
Maximum altitude 00:16:05 64° 266° (W) 1,046 4.0 -17.2°
Enters shadow 00:19:31 27° 193° (SSW) 1,753 4.7 -17.0°
